Change the Weather History Date:

Wednesday, October 9, 2013

  Actual Average Record
Temperature  
Mean Temperature 65 °F -  
Max Temperature 75 °F 60 °F 80 °F (1999)
Min Temperature 55 °F 37 °F 24 °F (1964)
Growing Degree Days 15 (Base 50)    
Moisture  
Dew Point 48 °F    
Average Humidity 57    
Maximum Humidity 77    
Minimum Humidity 38    
Precipitation  
Precipitation 0.00 in - - ()
Sea Level Pressure  
Sea Level Pressure 29.97 in    
Wind  
Wind Speed 5 mph (SSE)    
Max Wind Speed 9 mph    
Max Gust Speed -    
Visibility 10 miles    
Events      
Averages and records for this station are not official NWS values.
T = Trace of Precipitation, MM = Missing Value Source: NWS Daily Summary

Daily Weather History Graph

Daily Weather History Graph

Search for Another Location

Airport or City:

Trip Planner

Search our weather history database for the weather conditions in past years. The results will help you decide how hot, cold, wet, or windy it might be!

Date:

Astronomy

Oct. 09, 2013 Rise Set
Actual Time 7:26 AM CDT 6:43 PM CDT
Civil Twilight 6:57 AM CDT 7:12 PM CDT
Nautical Twilight 6:22 AM CDT 7:46 PM CDT
Astronomical Twilight 5:48 AM CDT 8:20 PM CDT
Moon 12:33 PM CDT (10/9) 10:07 PM CDT (10/9)
Length of Visible Light 12h 15m
Length of Day
11h 16m
Waxing Crescent, 25% of the Moon is Illuminated
Oct 9
Waxing Crescent
Oct 11
First Quarter
Oct 18
Full
Oct 26
Last Quarter
Nov 3
New

Hourly Weather History & Observations

Time (CDT) Temp. Dew Point Humidity Pressure Visibility Wind Dir Wind Speed Gust Speed Precip Events Conditions
12:13 AM 62.6 °F 46.4 °F 55% 29.89 in 10.0 mi South 4.6 mph - N/A   Clear
12:33 AM 62.6 °F 46.4 °F 55% 29.90 in 10.0 mi SSE 4.6 mph - N/A   Clear
12:52 AM 62.6 °F 46.4 °F 55% 29.90 in 10.0 mi SSE 4.6 mph - N/A   Clear
1:13 AM 62.6 °F 46.4 °F 55% 29.90 in 10.0 mi South 5.8 mph - N/A   Clear
1:33 AM 62.6 °F 46.4 °F 55% 29.91 in 10.0 mi South 5.8 mph - N/A   Clear
1:53 AM 62.6 °F 46.4 °F 55% 29.91 in 10.0 mi SSE 4.6 mph - N/A   Clear
2:12 AM 62.6 °F 46.4 °F 55% 29.92 in 10.0 mi South 4.6 mph - N/A   Clear
2:33 AM 60.8 °F 46.4 °F 59% 29.93 in 10.0 mi South 3.5 mph - N/A   Clear
2:52 AM 60.8 °F 46.4 °F 59% 29.93 in 10.0 mi South 4.6 mph - N/A   Clear
3:13 AM 60.8 °F 46.4 °F 59% 29.93 in 10.0 mi South 5.8 mph - N/A   Clear
3:33 AM 60.8 °F 46.4 °F 59% 29.93 in 10.0 mi South 6.9 mph - N/A   Clear
3:52 AM 60.8 °F 46.4 °F 59% 29.93 in 10.0 mi SSE 4.6 mph - N/A   Clear
4:13 AM 59.0 °F 48.2 °F 67% 29.93 in 10.0 mi South 5.8 mph - N/A   Clear
4:33 AM 59.0 °F 46.4 °F 63% 29.93 in 10.0 mi South 4.6 mph - N/A   Clear
4:52 AM 57.2 °F 46.4 °F 67% 29.94 in 10.0 mi South 4.6 mph - N/A   Clear
5:13 AM 57.2 °F 48.2 °F 72% 29.94 in 10.0 mi South 3.5 mph - N/A   Clear
5:33 AM 57.2 °F 48.2 °F 72% 29.95 in 10.0 mi South 3.5 mph - N/A   Clear
5:52 AM 57.2 °F 48.2 °F 72% 29.95 in 10.0 mi South 3.5 mph - N/A   Clear
6:13 AM 55.4 °F 48.2 °F 77% 29.95 in 10.0 mi South 4.6 mph - N/A   Clear
6:33 AM 55.4 °F 48.2 °F 77% 29.96 in 10.0 mi South 3.5 mph - N/A   Clear
6:53 AM 55.4 °F 48.2 °F 77% 29.96 in 10.0 mi SSE 5.8 mph - N/A   Clear
7:13 AM 55.4 °F 48.2 °F 77% 29.96 in 10.0 mi SSE 5.8 mph - N/A   Clear
7:32 AM 55.4 °F 48.2 °F 77% 29.97 in 10.0 mi SSE 4.6 mph - N/A   Clear
7:53 AM 55.4 °F 48.2 °F 77% 29.97 in 10.0 mi SSE 4.6 mph - N/A   Clear
8:13 AM 55.4 °F 48.2 °F 77% 29.98 in 10.0 mi SSE 4.6 mph - N/A   Clear
8:32 AM 57.2 °F 50.0 °F 77% 29.98 in 10.0 mi South 3.5 mph - N/A   Clear
8:53 AM 57.2 °F 48.2 °F 72% 29.99 in 10.0 mi South 5.8 mph - N/A   Clear
9:13 AM 57.2 °F 48.2 °F 72% 29.99 in 10.0 mi South 6.9 mph - N/A   Clear
9:32 AM 59.0 °F 48.2 °F 67% 29.99 in 10.0 mi South 4.6 mph - N/A   Clear
9:53 AM 62.6 °F 50.0 °F 63% 29.99 in 10.0 mi South 5.8 mph - N/A   Clear
10:13 AM 62.6 °F 50.0 °F 63% 30.00 in 10.0 mi South 6.9 mph - N/A   Clear
10:32 AM 64.4 °F 50.0 °F 59% 30.01 in 10.0 mi South 9.2 mph - N/A   Clear
11:13 AM 66.2 °F 50.0 °F 56% 30.01 in 10.0 mi South 6.9 mph - N/A   Clear
11:32 AM 68.0 °F 50.0 °F 52% 30.01 in 10.0 mi SSW 5.8 mph - N/A   Clear
11:53 AM 69.8 °F 50.0 °F 49% 30.01 in 10.0 mi SW 5.8 mph - N/A   Clear
12:13 PM 69.8 °F 50.0 °F 49% 30.01 in 10.0 mi South 4.6 mph - N/A   Clear
12:32 PM 71.6 °F 50.0 °F 46% 30.01 in 10.0 mi SSW 3.5 mph - N/A   Clear
12:53 PM 71.6 °F 51.8 °F 50% 30.01 in 10.0 mi SSE 5.8 mph - N/A   Clear
1:12 PM 71.6 °F 50.0 °F 46% 30.00 in 10.0 mi SSE 4.6 mph - N/A   Clear
1:33 PM 73.4 °F 50.0 °F 44% 30.00 in 10.0 mi SSE 6.9 mph - N/A   Clear
1:53 PM 73.4 °F 50.0 °F 44% 29.99 in 10.0 mi SSE 4.6 mph - N/A   Clear
2:12 PM 73.4 °F 50.0 °F 44% 29.99 in 10.0 mi SSE 6.9 mph - N/A   Clear
2:33 PM 75.2 °F 51.8 °F 44% 29.98 in 10.0 mi SSE 8.1 mph - N/A   Clear
2:53 PM 75.2 °F 50.0 °F 41% 29.98 in 10.0 mi SSE 8.1 mph - N/A   Clear
3:12 PM 75.2 °F 50.0 °F 41% 29.99 in 10.0 mi SSE 6.9 mph - N/A   Clear
3:33 PM 75.2 °F 50.0 °F 41% 29.98 in 10.0 mi SSE 6.9 mph - N/A   Clear
3:53 PM 75.2 °F 50.0 °F 41% 29.98 in 10.0 mi SSE 8.1 mph - N/A   Clear
4:12 PM 75.2 °F 50.0 °F 41% 29.98 in 7.0 mi SSE 9.2 mph - N/A   Clear
4:33 PM 75.2 °F 48.2 °F 38% 29.97 in 10.0 mi SSE 5.8 mph - N/A   Clear
4:52 PM 75.2 °F 50.0 °F 41% 29.97 in 10.0 mi SE 8.1 mph - N/A   Clear
5:13 PM 75.2 °F 50.0 °F 41% 29.97 in 10.0 mi SSE 8.1 mph - N/A   Clear
5:33 PM 73.4 °F 50.0 °F 44% 29.97 in 10.0 mi SE 6.9 mph - N/A   Clear
5:53 PM 73.4 °F 50.0 °F 44% 29.97 in 10.0 mi SSE 5.8 mph - N/A   Clear
6:12 PM 73.4 °F 50.0 °F 44% 29.97 in 10.0 mi SSE 5.8 mph - N/A   Clear
6:33 PM 71.6 °F 50.0 °F 46% 29.97 in 10.0 mi SE 5.8 mph - N/A   Clear
6:53 PM 68.0 °F 48.2 °F 49% 29.97 in 10.0 mi SE 5.8 mph - N/A   Clear
7:12 PM 66.2 °F 48.2 °F 52% 29.98 in 10.0 mi SE 4.6 mph - N/A   Clear
7:33 PM 64.4 °F 48.2 °F 56% 29.98 in 10.0 mi SE 6.9 mph - N/A   Clear
7:53 PM 66.2 °F 48.2 °F 52% 29.98 in 10.0 mi SE 6.9 mph - N/A   Clear
8:13 PM 66.2 °F 46.4 °F 49% 29.98 in 10.0 mi SSE 6.9 mph - N/A   Clear
8:33 PM 66.2 °F 46.4 °F 49% 29.99 in 10.0 mi SE 6.9 mph - N/A   Clear
8:53 PM 64.4 °F 46.4 °F 52% 29.99 in 10.0 mi SE 8.1 mph - N/A   Clear
9:13 PM 64.4 °F 46.4 °F 52% 29.99 in 10.0 mi SE 6.9 mph - N/A   Clear
9:33 PM 64.4 °F 48.2 °F 56% 30.00 in 10.0 mi SSE 5.8 mph - N/A   Clear
9:53 PM 62.6 °F 48.2 °F 59% 30.00 in 10.0 mi SE 6.9 mph - N/A   Clear
10:12 PM 62.6 °F 48.2 °F 59% 30.00 in 10.0 mi SE 6.9 mph - N/A   Clear
10:33 PM 62.6 °F 48.2 °F 59% 30.00 in 10.0 mi SSE 4.6 mph - N/A   Clear
10:53 PM 62.6 °F 48.2 °F 59% 30.01 in 10.0 mi SSE 4.6 mph - N/A   Clear
11:13 PM 62.6 °F 48.2 °F 59% 30.02 in 10.0 mi SSE 4.6 mph - N/A   Clear
11:33 PM 62.6 °F 48.2 °F 59% 30.02 in 10.0 mi SSE 4.6 mph - N/A   Clear
11:53 PM 62.6 °F 48.2 °F 59% 30.02 in 10.0 mi SSE 5.8 mph - N/A   Clear